This is the latest recevied weather packets stored in our database for station/object AD8IZ-13. If no packets are shown the sender has not sent any weather packets the latest 10 day(s).
| Time | Temp. | Humidity | Pressure | Rain* | Wind** | Luminosity | Snow |
|---|---|---|---|---|---|---|---|
| 1777791317 | -1.11° C | 97% | 1017.6 hPa | 0 mm | - | 0 W/m² | - |
| 1777790720 | -1.11° C | 97% | 1017.6 hPa | 0 mm | - | 0 W/m² | - |
| 1777790121 | -1.11° C | 97% | 1017.7 hPa | 0 mm | - | 0 W/m² | - |
| 1777789518 | -1.11° C | 97% | 1017.8 hPa | 0 mm | - | 0 W/m² | - |
| 1777788918 | -0.56° C | 97% | 1017.8 hPa | 0 mm | - | 0 W/m² | - |
| 1777788318 | -0.56° C | 97% | 1017.8 hPa | 0 mm | - | 0 W/m² | - |
| 1777787722 | -0.56° C | 96% | 1017.9 hPa | 0 mm | - | 0 W/m² | - |
| 1777787121 | -0.56° C | 96% | 1018 hPa | 0 mm | - | 0 W/m² | - |
| 1777786518 | -0.56° C | 96% | 1018 hPa | 0 mm | - | 0 W/m² | - |
| 1777785920 | 0° C | 96% | 1017.9 hPa | 0 mm | - | 0 W/m² | - |
| 1777785319 | 0° C | 96% | 1017.9 hPa | 0 mm | - | 0 W/m² | - |
| 1777784719 | 0° C | 95% | 1017.9 hPa | 0 mm | - | 0 W/m² | - |
| 1777784119 | 0.56° C | 95% | 1017.8 hPa | 0 mm | - | 0 W/m² | - |
| 1777783519 | 0.56° C | 95% | 1017.8 hPa | 0 mm | - | 0 W/m² | - |
| 1777782917 | 0.56° C | 94% | 1017.7 hPa | 0 mm | - | 0 W/m² | - |
| 1777782318 | 0.56° C | 94% | 1017.7 hPa | 0 mm | - | 0 W/m² | - |
| 1777781720 | 0.56° C | 94% | 1017.6 hPa | 0 mm | - | 0 W/m² | - |
| 1777781120 | 1.11° C | 93% | 1017.8 hPa | 0 mm | - | 0 W/m² | - |
| 1777780517 | 1.11° C | 93% | 1017.8 hPa | 0 mm | - | 0 W/m² | - |
| 1777779918 | 1.67° C | 93% | 1017.8 hPa | 0 mm | - | 0 W/m² | - |
| 1777779317 | 1.67° C | 92% | 1017.8 hPa | 0 mm | - | 0 W/m² | - |
| 1777778718 | 2.22° C | 91% | 1017.8 hPa | 0 mm | - | 0 W/m² | - |
| 1777778119 | 2.22° C | 90% | 1017.9 hPa | 0 mm | - | 0 W/m² | - |
| 1777777518 | 2.78° C | 89% | 1017.9 hPa | 0 mm | - | 0 W/m² | - |
| 1777776918 | 2.78° C | 87% | 1018 hPa | 0 mm | - | 0 W/m² | - |
* Rain latest hour (hover to see other rain measurements)
** Current wind speed in m/s (hover to see current wind gust speed)